Wind_Speed
42 41 39 38 38 36 35 34 34 34 34 35 35 34 34 35 36 37 37 37 36 36 36 37 39 42 44 42 40 42 46 48 50 49 46 44 44 43 42 43 44 45 45 43 38 37 39 38 39 39 34 29 29 28 27 25 22 21 25 29 32 36 39 43 48 49 48 48 46 40 39 41 44 46 47 49 52 53 53 53 54 54 55 56 56 56 56
44 42 41 40 40 38 36 36 36 35 35 36 36 35 34 34 37 39 40 40 39 39 39 40 40 41 43 46 45 44 44 45 46 49 50 49 48 47 46 47 48 47 46 43 39 38 39 40 42 44 41 36 33 32 31 30 25 21 23 27 31 37 42 45 49 51 50 48 44 40 40 41 42 44 45 47 49 51 52 53 55 56 57 58 58 58 58
43 43 43 42 41 40 39 38 38 37 37 37 37 37 36 35 36 38 39 40 41 41 42 42 44 44 44 46 48 49 48 46 46 49 51 53 52 50 49 49 50 50 47 44 42 41 42 42 44 47 48 44 39 37 36 34 31 29 28 30 35 40 44 47 48 49 48 47 46 44 42 41 43 44 46 49 51 52 53 55 57 59 59 59 59 59 59
45 44 45 45 43 43 43 42 42 42 41 41 40 39 37 36 36 37 39 41 42 43 44 44 43 41 41 43 46 49 51 52 52 52 53 54 54 52 49 49 50 51 49 47 46 45 45 46 48 51 54 52 47 45 45 43 41 39 39 38 40 41 43 46 48 50 53 55 55 51 47 48 53 54 53 55 57 59 60 62 63 63 63 62 61 61 61
48 47 47 46 45 46 48 47 47 46 45 44 42 40 39 38 38 38 39 41 43 45 46 46 42 38 39 42 42 44 49 54 56 57 56 56 55 53 51 49 51 54 54 52 51 52 52 52 52 55 59 60 57 54 53 51 49 48 46 44 45 48 51 54 56 59 63 65 65 61 58 59 64 66 65 65 67 69 71 72 71 70 70 69 68 66 65
49 49 49 47 45 47 50 51 52 51 49 47 45 44 41 40 38 38 39 41 42 44 46 47 46 44 44 46 46 47 49 51 54 57 58 59 60 59 56 52 52 56 58 58 58 58 58 57 58 59 63 66 65 62 61 59 58 58 58 57 59 63 66 68 69 70 70 70 69 68 68 68 71 73 74 75 76 76 76 74 73 72 72 72 71 70 69
51 52 52 52 50 49 50 53 55 55 54 51 49 47 46 43 39 37 39 40 40 41 43 46 49 50 50 50 51 52 52 51 52 55 58 59 59 59 58 56 55 56 58 60 62 63 63 64 65 64 66 68 69 68 68 68 68 69 70 72 74 76 77 77 76 74 73 72 72 72 72 73 74 76 77 78 78 77 75 74 73 72 72 71 71 71 71
56 56 56 57 57 54 53 55 56 57 57 55 52 50 49 47 44 43 43 43 42 41 41 42 46 51 54 55 55 54 54 53 54 55 57 58 58 57 57 60 61 61 61 61 62 63 65 68 70 70 70 70 71 72 72 74 76 77 78 80 80 80 80 78 77 75 74 73 73 72 72 73 74 74 75 76 76 75 74 74 73 72 72 72 72 72 72
60 60 60 60 59 57 56 55 55 55 56 56 55 54 52 51 50 49 49 47 46 45 44 42 44 48 51 55 58 58 58 58 58 57 57 58 58 57 57 60 64 65 65 65 65 65 66 68 70 72 74 74 75 76 77 79 81 82 83 84 84 83 82 80 78 77 76 75 74 73 72 72 72 72 73 74 74 74 74 74 74 73 73 73 73 73 72
62 63 63 62 60 60 57 55 54 54 54 55 55 55 55 55 54 54 53 52 49 47 47 47 48 50 49 49 53 59 62 63 63 62 62 62 61 61 60 61 63 65 66 67 67 68 68 69 70 72 74 75 76 78 80 81 82 83 84 84 84 84 83 82 81 80 79 78 76 75 74 73 73 72 73 73 74 74 75 75 75 75 75 74 74 74 73
64 64 65 64 63 62 60 56 55 55 54 54 54 56 57 58 59 58 58 57 55 52 50 48 49 51 51 50 51 54 57 59 60 61 62 63 63 63 63 62 62 63 65 66 67 68 70 71 72 73 74 75 76 77 78 80 80 81 80 80 80 80 80 80 81 81 81 80 79 77 75 74 74 74 74 74 74 74 75 75 75 76 76 76 75 75 75
65 66 66 66 65 65 63 60 58 57 57 57 56 57 58 59 62 63 62 62 62 60 58 56 55 56 57 58 59 59 57 55 55 56 57 58 59 61 62 61 61 62 62 63 64 65 67 68 69 70 71 71 71 72 73 74 76 77 77 77 77 78 78 79 79 79 80 79 79 78 76 75 75 74 74 75 75 75 75 76 77 77 77 77 77 77 77
66 67 68 68 67 67 66 64 62 60 60 60 59 59 59 59 61 63 64 65 66 66 65 65 66 65 64 63 64 64 62 61 59 58 58 59 59 60 61 62 63 63 63 64 64 64 65 66 66 66 67 68 68 69 69 70 72 74 75 76 77 78 78 78 78 78 78 77 76 76 75 75 75 74 74 74 75 75 76 76 76 76 76 76 76 76 76
67 68 69 69 69 69 68 67 66 64 62 62 62 62 62 61 61 63 63 64 65 67 68 69 70 70 70 68 67 67 66 65 63 62 62 62 63 64 64 65 66 67 67 68 68 68 68 69 69 69 69 69 70 70 70 71 72 73 74 75 76 77 77 77 77 77 75 74 73 73 72 72 72 72 72 72 72 72 73 73 73 73 73 73 73 73 74
69 69 70 70 71 70 70 69 69 67 66 65 65 65 65 65 65 65 65 65 66 67 68 69 69 70 71 71 71 70 69 67 66 65 65 65 66 66 67 67 68 68 69 71 71 72 72 72 72 72 72 72 72 72 72 73 73 74 74 74 75 75 76 76 76 75 74 73 72 71 71 71 71 71 71 71 71 72 72 72 72 72 72 72 71 72 72
71 71 71 72 72 72 72 71 70 70 69 68 67 67 67 67 68 68 69 70 70 71 71 70 70 70 70 71 71 71 71 71 70 69 69 69 68 68 68 68 69 69 70 71 71 72 72 72 72 72 71 71 71 72 72 73 73 74 74 74 74 74 74 75 75 75 75 75 75 74 74 74 74 74 74 74 74 74 74 74 73 73 73 73 73 73 73
74 74 74 74 74 74 73 73 73 72 72 71 70 70 70 70 70 71 71 72 73 74 74 73 72 72 72 72 72 72 72 72 72 72 72 71 70 70 69 70 70 70 70 71 71 71 71 72 72 71 71 71 71 72 72 73 73 73 74 74 74 75 75 75 76 76 77 77 77 78 78 78 78 78 78 78 78 78 77 77 76 76 76 77 77 76 76
77 77 76 76 76 76 76 76 76 75 75 74 74 73 73 73 73 74 74 75 76 76 76 76 76 75 75 74 74 74 74 75 75 74 74 73 73 72 71 71 71 71 72 72 72 72 72 73 73 73 73 73 74 74 74 74 75 75 75 76 76 76 77 77 78 78 79 79 80 80 81 81 81 81 81 81 81 82 82 81 81 81 81 81 81 81 80
78 78 78 78 78 78 78 78 79 78 78 77 77 76 76 76 77 77 78 78 78 78 78 78 77 77 76 76 76 76 77 77 77 77 76 76 76 75 74 74 74 74 74 75 75 74 75 75 76 76 76 76 77 77 77 77 77 78 78 78 78 79 79 80 80 81 81 82 82 83 83 84 84 84 85 85 85 85 86 86 86 86 86 86 86 85 85
79 80 81 81 80 80 80 80 81 81 81 80 80 79 79 79 80 80 81 81 81 80 79 79 79 78 77 77 77 77 77 78 79 79 79 79 79 79 78 77 76 77 77 77 76 76 77 77 77 77 78 78 78 79 79 79 80 80 80 80 81 81 82 82 82 83 83 84 85 86 86 87 87 88 88 88 88 89 89 90 90 90 90 90 90 89 88
76 80 82 83 84 83 83 83 83 83 83 83 83 82 82 82 83 83 83 83 83 83 82 82 81 81 80 79 79 78 78 79 80 81 82 82 82 82 81 80 79 78 79 79 79 79 79 79 79 79 79 79 80 80 81 81 81 82 82 83 83 84 84 85 85 86 87 87 88 89 89 90 90 91 91 91 92 92 93 93 93 93 93 93 93 92 90
72 76 80 83 85 85 86 85 85 86 86 86 86 86 86 86 86 86 86 86 86 86 85 85 85 84 84 83 83 83 83 83 84 84 84 84 84 83 83 82 81 81 81 81 81 82 82 82 82 83 83 82 83 83 84 84 84 85 85 86 86 87 88 88 89 90 90 91 92 92 93 93 94 94 95 95 95 95 96 96 96 95 95 94 94 93 92
68 71 75 78 81 83 85 86 86 87 88 88 89 89 89 89 89 89 89 89 89 89 89 89 89 88 87 87 87 87 88 88 88 87 87 87 86 86 87 86 85 85 84 84 84 84 85 85 85 86 86 86 87 87 87 87 88 88 89 89 90 90 91 92 93 94 94 95 95 96 97 97 98 98 99 99 99 99 99 99 98 97 96 95 94 93 92
64 67 70 73 76 78 81 83 84 85 87 88 89 90 90 91 91 92 92 92 92 92 92 93 93 92 91 91 91 92 93 92 92 91 91 90 90 90 91 90 89 88 88 88 87 87 87 87 88 88 89 89 90 90 91 91 91 92 92 93 94 94 95 96 97 97 98 98 99 99 100 101 101 101 102 102 103 102 102 100 100 99 98 97 95 94 92
59 63 66 68 70 73 75 78 80 81 82 83 85 87 88 89 90 91 92 93 93 94 95 96 96 96 95 95 95 96 96 95 94 94 94 94 94 94 94 93 93 92 92 92 91 91 91 91 91 92 92 93 93 94 94 95 95 95 96 96 97 97 98 99 99 100 100 101 101 101 102 102 103 103 103 103 103 104 103 101 99 98 97 96 94 93 91
53 57 60 62 65 67 70 73 75 77 79 80 81 81 83 84 86 87 88 88 90 91 92 94 95 96 96 97 98 98 97 96 96 96 96 96 96 96 96 95 95 94 94 94 94 94 94 93 93 93 93 94 95 95 95 96 96 96 96 97 97 98 98 99 99 99 99 100 100 100 101 101 101 101 100 100 100 100 100 98 96 94 92 90 89 88 87
47 50 53 55 58 61 63 66 69 71 74 76 78 79 79 79 80 81 82 82 83 84 86 88 89 90 92 93 94 94 95 95 94 94 95 95 95 95 94 93 93 93 92 92 92 91 91 91 91 91 91 91 91 91 91 91 91 91 91 92 93 93 93 94 95 95 95 96 96 97 97 97 97 97 97 96 95 94 94 93 92 90 88 85 82 81 80
44 46 48 50 52 54 57 59 62 65 67 70 73 75 76 76 75 75 75 76 77 78 79 81 82 83 84 86 87 87 88 89 90 90 90 90 90 90 90 89 89 89 89 88 88 87 87 87 86 86 86 86 86 85 85 85 84 84 84 84 85 85 85 86 87 88 88 89 90 90 91 91 92 92 92 91 91 90 89 88 87 86 85 82 78 76 74
42 44 46 48 49 51 52 54 56 59 62 64 67 69 70 71 71 71 71 71 72 73 74 74 75 75 76 77 79 80 80 81 82 82 82 82 82 82 82 83 83 83 83 82 82 82 82 81 81 81 80 80 80 79 79 78 78 77 77 77 77 77 77 77 78 79 79 80 81 82 83 83 84 84 84 84 84 84 83 82 82 81 80 79 77 74 72
40 42 44 46 47 49 50 52 54 56 58 60 61 62 64 65 66 67 67 68 68 69 70 70 69 69 69 70 71 73 74 74 75 75 75 74 74 73 73 73 74 74 74 75 75 75 75 75 75 75 74 74 74 74 73 73 73 72 72 72 71 71 71 71 71 72 72 72 73 74 74 75 75 76 77 77 77 77 77 76 76 75 74 73 73 72 70
39 41 42 44 45 47 49 51 53 54 55 55 56 58 58 59 60 61 62 63 63 64 65 65 65 65 65 65 66 67 68 69 70 70 70 69 69 68 68 68 68 68 68 69 69 70 70 70 70 70 70 70 69 69 69 69 69 68 68 68 68 68 68 68 68 68 68 68 68 68 69 69 70 70 70 70 71 71 71 70 70 69 69 69 68 67 67
40 41 41 42 43 45 46 48 50 51 51 52 54 55 55 54 54 55 57 57 58 59 60 60 60 61 61 61 61 62 63 64 65 65 66 66 65 65 64 64 65 64 65 65 65 65 65 65 65 65 65 65 65 65 65 65 65 65 64 64 64 65 65 64 64 64 64 64 65 65 65 65 66 66 66 66 66 66 66 66 65 65 65 65 64 64 63
40 42 43 43 42 42 42 43 45 46 47 49 51 52 52 51 51 52 52 53 54 55 56 56 55 55 56 57 57 58 58 58 59 60 61 61 61 61 61 61 61 61 62 62 62 61 61 60 61 61 61 61 61 61 61 61 61 61 61 60 61 61 61 61 61 61 61 61 61 62 62 62 62 62 62 62 62 62 62 62 62 62 62 61 61 60 58
39 42 44 44 43 42 41 41 41 42 42 44 47 48 49 49 49 49 49 49 51 52 53 53 53 53 52 53 53 54 54 54 54 55 55 55 56 56 56 56 57 57 58 59 58 57 57 57 58 58 58 58 58 58 58 58 57 57 57 57 57 57 57 58 58 58 58 58 58 58 59 59 58 58 58 58 58 58 58 58 58 58 58 58 57 55 54
37 39 41 43 43 42 41 40 40 39 39 40 42 44 45 46 47 47 47 47 48 49 50 50 51 51 51 51 51 51 51 51 51 51 51 51 51 51 52 52 53 54 55 55 54 54 54 55 55 56 56 55 55 55 55 54 54 55 54 54 54 54 54 54 54 54 54 54 54 54 55 55 54 54 54 54 54 54 54 54 55 55 55 55 54 52 50
36 37 38 39 40 41 41 40 39 38 37 38 39 40 41 42 43 44 45 45 46 46 47 48 49 49 49 49 49 49 49 49 49 48 48 48 48 48 49 50 51 52 52 52 51 51 51 52 52 53 53 52 52 52 52 51 51 52 51 51 51 51 51 51 50 50 50 50 50 51 51 51 50 50 50 50 51 51 51 52 52 52 52 52 51 49 47
36 36 36 35 36 37 38 38 37 36 35 35 35 37 38 39 40 41 42 43 43 43 44 45 46 47 47 47 48 48 48 47 47 47 46 46 46 46 47 48 49 49 48 48 47 48 48 49 49 49 49 49 48 48 48 48 48 48 48 48 47 47 48 48 48 48 47 48 48 48 48 47 47 47 47 48 49 49 49 49 50 50 50 49 48 46 44
35 36 35 34 33 33 34 34 35 34 33 32 33 34 35 37 37 38 39 40 40 40 41 42 44 44 45 45 46 46 46 46 45 45 44 44 44 45 45 46 46 46 45 45 45 45 46 46 46 46 46 45 45 45 45 45 45 45 45 45 44 44 44 45 45 45 45 45 45 45 45 45 44 44 45 46 47 47 47 47 47 47 47 46 45 44 42
32 34 34 33 31 31 31 31 31 32 31 31 30 31 33 34 35 36 37 37 37 37 38 40 41 42 42 43 43 44 44 44 44 43 43 43 43 43 44 44 44 43 43 43 43 44 43 43 43 44 44 43 43 43 43 43 42 43 43 42 42 42 42 42 43 43 43 43 43 43 43 43 43 43 43 44 45 45 45 44 44 44 44 43 43 42 40
30 31 32 31 30 29 29 29 28 29 29 29 29 29 30 32 33 34 35 34 34 34 36 38 38 39 39 40 41 42 42 42 42 42 42 42 42 42 42 42 41 42 42 42 42 41 41 41 42 42 42 42 42 41 41 41 41 41 41 40 40 39 39 40 40 41 41 41 41 41 41 41 41 41 42 42 43 43 43 42 42 41 41 41 41 40 39
29 29 29 29 28 27 27 27 27 27 27 28 28 28 28 29 30 32 33 33 32 32 34 35 36 37 37 38 39 40 41 41 41 40 40 40 40 41 40 40 40 41 42 41 40 40 40 41 41 41 41 41 41 41 41 40 40 40 40 39 38 38 38 38 38 39 39 40 40 40 40 40 40 40 40 40 41 41 41 40 40 39 39 38 38 38 37
29 29 28 28 27 26 25 25 25 26 26 27 27 27 26 26 28 30 32 32 31 31 32 33 34 35 36 37 38 38 39 39 39 39 39 39 39 39 39 39 40 41 41 39 39 39 40 40 40 40 40 40 40 40 40 39 39 39 39 38 38 37 37 37 37 38 38 38 39 38 39 39 39 38 38 38 39 39 39 38 38 37 37 36 35 35 35
29 29 28 27 26 26 25 24 24 25 25 26 26 26 25 25 26 28 30 30 30 30 31 32 33 33 34 35 37 37 38 38 38 38 38 38 39 38 38 39 40 40 39 38 38 39 39 39 39 39 39 39 39 39 38 38 37 37 37 37 37 37 37 37 37 37 37 37 37 37 37 37 37 37 36 36 36 37 37 36 36 35 35 34 33 32 31
29 28 27 26 25 25 25 25 24 24 25 25 25 25 24 24 25 27 28 29 30 30 31 32 33 33 34 35 36 37 37 38 38 38 37 37 38 38 38 39 39 39 38 38 38 38 38 37 37 37 37 37 37 37 37 36 36 36 36 36 37 36 36 36 36 36 36 36 37 36 36 36 36 35 35 35 34 34 35 34 34 33 33 33 31 30 29
28 27 27 26 25 24 24 25 25 25 24 24 24 23 23 23 24 25 27 28 29 29 30 31 32 33 34 35 35 36 37 37 38 37 37 37 37 37 37 38 38 38 37 37 38 37 37 36 36 35 35 35 36 36 36 35 35 35 35 35 35 36 36 36 35 35 35 36 36 36 36 35 35 34 34 33 33 33 33 33 33 32 31 31 30 29 27
28 27 26 26 25 24 24 24 24 24 24 24 23 23 23 22 23 24 25 26 27 28 29 30 32 33 33 34 35 36 36 36 36 37 38 38 37 37 37 37 38 37 37 37 37 36 36 35 34 34 34 34 34 34 35 35 34 34 34 34 34 35 35 35 35 35 35 35 35 35 34 34 34 33 33 32 32 32 32 32 32 31 30 29 29 28 27
28 26 26 25 25 24 24 24 24 24 24 24 24 23 23 23 23 23 24 25 26 27 27 29 30 31 32 34 35 35 35 35 36 36 37 38 37 37 36 37 37 37 37 36 36 36 35 34 33 33 32 32 33 33 34 34 34 34 33 33 33 33 34 34 34 34 34 33 33 33 33 33 33 32 32 32 31 31 31 31 31 30 29 28 27 27 26
28 26 25 25 24 23 23 23 23 23 23 24 24 24 23 23 23 23 24 25 26 26 27 27 28 29 31 32 33 34 35 35 36 36 37 37 37 37 37 36 36 37 36 36 36 35 35 34 33 32 32 31 32 32 33 33 33 33 33 33 33 33 33 33 33 33 33 32 32 32 32 32 32 32 31 31 30 30 30 30 29 29 29 28 27 26 26
29 27 25 24 24 23 22 22 22 22 22 23 24 24 24 24 24 24 25 25 26 27 27 27 27 29 30 31 32 33 34 34 35 36 36 36 37 37 37 36 36 36 36 36 36 35 35 34 33 32 31 31 31 31 32 32 32 32 32 32 32 32 32 33 32 32 32 32 31 31 31 31 31 31 30 30 29 29 29 28 28 28 28 28 27 26 26
30 28 26 25 24 23 23 22 22 21 22 23 24 25 25 25 25 26 26 26 26 27 27 27 28 29 30 31 32 33 33 33 34 35 35 36 36 36 36 36 36 35 35 35 35 35 35 34 33 33 32 31 31 31 31 31 32 32 32 32 32 32 32 32 32 31 31 31 31 31 31 30 30 30 29 29 29 28 28 27 27 26 26 26 26 26 25
30 29 27 25 24 24 23 23 23 22 22 22 23 24 25 26 27 27 27 26 26 26 27 28 29 29 29 30 32 33 33 33 34 34 35 35 36 36 36 36 36 35 35 35 35 35 35 34 34 33 32 32 31 31 31 31 31 31 32 32 32 32 32 32 31 31 30 30 30 30 30 30 30 30 29 28 28 27 27 27 26 26 25 25 25 25 25
30 29 28 26 25 24 23 23 23 23 23 22 22 23 24 26 28 28 27 27 27 27 27 28 29 29 30 30 31 32 33 33 33 34 34 35 35 35 36 36 36 35 35 35 35 35 35 34 34 34 33 32 32 32 31 31 31 31 31 31 31 31 31 31 31 31 30 30 30 29 29 29 29 29 29 28 28 27 27 26 26 25 25 24 24 24 24
Wind_Direction
232 232 231 231 231 231 230 227 225 224 225 224 222 222 223 224 224 223 221 222 222 223 223 219 213 206 202 207 213 216 221 228 230 229 230 233 235 235 233 231 230 228 228 227 225 225 222 212 203 202 205 205 205 208 211 212 214 221 233 245 252 252 248 244 247 254 262 269 273 276 277 274 273 274 273 272 272 270 269 269 269 269 270 271 272 273 274
232 232 232 231 231 230 229 228 227 226 228 227 224 221 220 220 223 224 224 224 221 220 221 220 216 211 209 213 217 218 221 228 231 230 230 231 233 235 234 231 229 228 227 225 222 222 222 217 209 207 210 212 211 209 209 209 207 210 222 234 240 242 242 244 250 257 264 268 267 267 273 274 270 268 268 269 269 268 268 269 270 270 271 272 272 273 274
226 228 229 230 230 231 231 230 230 229 228 228 226 224 221 220 222 224 225 227 226 223 222 221 220 218 216 218 222 222 223 226 228 230 229 229 232 234 233 230 227 227 226 224 222 223 225 224 218 213 214 216 215 212 213 219 220 213 212 221 231 238 242 247 253 259 265 270 268 265 267 270 268 266 266 267 265 264 266 270 272 272 272 272 272 272 272
221 221 225 226 227 229 230 231 232 233 232 232 231 229 226 224 224 225 224 224 225 225 225 225 225 223 221 224 227 228 228 227 227 228 229 229 230 231 231 229 228 228 228 228 226 223 225 226 223 219 216 217 219 217 219 228 233 224 216 217 225 234 241 247 253 260 266 271 272 267 260 259 262 264 267 268 266 264 267 272 274 275 274 273 273 273 272
222 221 224 227 227 227 228 229 231 234 235 235 236 235 231 227 226 228 229 226 223 223 224 224 223 219 218 222 226 229 232 232 230 229 229 229 229 230 233 235 234 232 232 232 230 225 224 225 224 222 220 219 221 222 223 228 233 229 224 225 231 239 246 252 257 262 266 268 269 267 261 257 259 262 264 267 267 268 271 273 275 275 274 274 274 274 272
224 222 223 226 227 226 226 227 229 231 234 235 236 237 236 233 232 232 234 233 230 227 225 224 221 217 217 221 223 225 229 232 233 232 232 232 232 233 237 238 237 236 236 235 233 229 225 225 224 224 223 221 222 225 227 230 234 235 236 239 244 250 255 259 262 264 266 266 266 265 264 262 261 261 262 264 267 270 271 272 273 273 273 273 274 273 273
225 225 224 224 224 223 221 223 225 228 230 232 234 235 235 234 234 233 233 233 231 230 230 228 225 221 219 219 221 224 227 229 231 231 231 233 234 235 234 232 232 235 236 236 237 234 230 228 226 226 226 224 225 228 231 236 241 244 247 249 252 256 260 263 265 265 265 265 265 265 266 266 265 264 264 266 268 270 271 272 272 272 271 272 272 272 273
227 228 228 227 227 225 222 222 224 226 228 230 232 234 235 234 233 231 231 232 232 231 232 231 230 229 226 222 221 223 226 229 231 231 230 232 234 233 231 228 228 231 234 235 238 238 237 234 231 229 229 228 228 232 237 241 246 250 253 254 256 259 262 263 264 265 265 266 267 267 267 267 267 266 267 267 269 270 271 271 272 272 272 271 271 271 272
228 230 232 233 233 232 229 226 226 227 229 230 232 234 235 235 235 234 234 235 236 235 234 234 234 233 232 230 228 227 227 229 231 233 233 233 235 235 232 229 229 231 233 235 238 240 242 242 239 237 236 234 233 236 241 245 249 252 254 256 257 259 261 263 264 265 266 266 267 267 267 267 266 266 266 267 268 268 269 270 271 271 271 271 271 271 272
230 232 234 236 237 238 236 233 231 231 232 233 235 236 237 236 237 237 237 237 238 237 237 240 241 239 238 237 235 232 231 232 234 235 236 237 239 240 240 238 236 235 236 238 239 241 243 245 246 246 246 244 243 242 244 249 253 255 257 258 259 259 260 261 263 264 265 266 266 266 266 266 266 265 266 266 267 268 269 270 271 271 271 272 272 273 273
231 233 235 237 238 239 240 238 236 235 236 236 236 237 237 237 237 239 240 240 240 239 238 240 241 240 239 239 238 237 236 237 239 240 240 241 243 245 246 246 245 243 243 243 243 244 245 247 249 251 252 252 252 251 251 252 255 257 259 260 261 262 262 262 263 264 265 265 265 265 264 264 265 265 266 266 267 268 269 270 271 272 273 274 274 274 275
231 233 235 237 238 239 241 241 239 238 238 238 237 237 237 236 236 237 239 241 242 242 241 241 240 241 241 241 243 246 246 244 243 243 245 247 248 249 250 251 252 251 250 249 248 248 248 249 251 252 254 255 255 255 254 255 256 257 258 259 260 261 261 262 262 263 263 264 264 264 264 264 265 265 266 267 268 269 270 271 272 273 274 275 275 276 276
231 233 235 237 238 240 242 242 241 239 238 239 239 239 240 239 238 238 239 240 242 244 244 245 246 247 248 248 249 251 252 251 249 248 249 251 252 253 253 254 255 256 256 255 254 254 253 254 254 255 255 256 257 257 257 257 257 258 258 259 260 261 261 261 261 261 262 263 264 265 265 266 266 266 267 267 268 268 269 270 271 272 273 273 274 275 275
231 232 235 237 239 240 242 243 244 243 241 240 240 240 240 241 241 242 242 242 242 243 243 245 247 250 252 254 254 254 254 254 254 254 254 254 254 254 255 255 256 257 257 258 258 258 258 258 259 259 260 260 260 260 260 260 260 261 261 262 263 263 264 264 264 263 263 264 265 265 266 267 267 267 267 267 267 268 268 269 269 270 270 271 272 273 274
232 233 234 236 238 240 241 243 245 245 244 243 241 241 241 241 241 243 244 245 244 244 243 244 245 247 249 252 254 255 256 256 256 256 256 256 255 255 256 256 256 257 257 258 258 259 259 259 260 260 261 261 261 262 262 262 263 263 263 263 264 265 266 267 268 269 269 269 269 269 269 269 269 269 269 269 269 269 268 268 269 269 269 270 271 272 274
232 233 234 236 237 239 241 242 244 245 245 245 244 243 243 242 242 243 244 245 246 246 246 246 247 247 248 249 250 252 253 254 255 255 255 255 255 255 255 256 256 256 257 257 258 259 260 260 260 260 260 260 261 261 261 262 262 263 264 265 265 266 267 268 269 271 272 272 272 272 272 272 272 272 271 271 270 270 270 270 270 270 270 270 271 271 272
232 234 235 236 238 239 241 242 243 244 245 246 246 246 246 246 245 245 245 246 246 247 247 248 248 249 249 250 250 251 252 252 253 253 253 253 253 252 253 253 254 254 255 256 257 258 259 260 260 261 261 261 261 261 261 262 263 263 264 265 266 267 268 268 269 270 271 271 272 273 273 273 273 273 273 273 273 272 272 272 272 272 272 271 271 271 271
233 234 236 237 238 239 241 242 243 244 245 246 247 247 248 249 249 249 249 248 248 248 248 248 249 249 250 250 252 253 253 254 254 254 255 255 254 253 253 253 253 254 254 255 256 256 257 258 259 260 260 261 261 261 262 262 263 264 264 265 266 267 268 268 269 269 270 271 272 272 273 274 274 275 275 275 275 276 276 275 275 275 274 274 274 274 273
235 236 237 238 239 240 241 242 243 245 246 246 247 248 249 250 251 251 252 252 252 252 252 251 251 251 251 252 253 253 254 255 256 256 257 257 258 257 257 256 256 256 256 256 256 256 257 257 258 259 259 260 260 261 261 262 263 263 264 265 266 267 267 268 268 269 270 271 272 273 273 274 274 275 275 275 276 276 276 276 276 276 276 276 276 276 275
236 237 239 240 240 241 242 243 244 245 247 248 248 249 250 251 252 252 253 254 255 255 256 256 256 255 255 255 255 255 256 257 258 259 259 259 259 260 260 260 259 260 260 260 260 260 260 260 261 261 261 262 262 263 263 264 264 265 266 266 267 267 268 269 269 270 271 271 272 272 273 273 274 274 274 275 275 275 276 276 276 276 276 276 276 276 276
237 238 239 240 241 242 243 243 244 245 247 248 249 250 251 251 252 253 254 255 256 257 257 258 259 259 259 259 259 259 259 259 259 260 260 260 260 261 261 262 262 262 263 264 264 264 265 265 265 265 265 265 265 266 266 267 267 268 269 269 269 270 270 270 271 271 271 272 272 272 273 273 273 274 274 275 275 275 275 276 276 276 276 277 277 277 277
239 239 240 241 242 243 244 245 245 245 246 247 249 250 250 251 252 253 254 255 256 257 257 258 259 259 260 261 261 261 261 261 260 260 261 261 262 263 263 263 263 263 263 264 265 265 266 266 267 267 267 268 268 268 268 268 269 269 270 270 271 271 272 272 273 273 273 273 274 274 274 275 275 275 276 276 276 276 276 277 277 277 277 277 278 278 278
241 241 242 243 244 245 245 246 247 247 248 248 248 249 250 250 251 252 253 254 255 256 257 258 258 259 260 260 261 261 261 262 262 262 262 263 264 264 264 264 264 264 264 264 264 265 265 266 266 267 268 268 268 268 269 269 269 270 270 271 271 271 272 272 273 273 273 274 274 275 275 276 276 277 277 277 278 278 278 278 279 279 279 279 279 279 279
244 244 244 245 246 246 247 248 249 249 249 249 250 250 251 251 251 252 253 254 254 255 256 257 258 259 259 260 260 260 261 262 262 263 263 264 264 264 265 265 265 266 266 266 266 266 266 267 267 268 268 268 269 269 269 269 270 270 270 271 271 271 272 272 272 273 273 273 274 274 275 275 276 276 276 277 278 278 278 278 279 279 279 280 280 280 280
246 247 247 247 248 248 249 250 251 251 252 251 252 252 252 253 253 253 253 253 254 254 255 256 257 258 259 259 260 260 261 261 262 263 264 264 265 265 266 266 267 267 267 268 268 268 268 268 268 269 269 269 269 270 270 270 270 270 271 271 271 271 271 271 272 272 272 272 273 273 273 274 274 274 275 275 276 277 277 278 278 278 278 278 279 279 279
247 248 248 249 250 250 250 251 252 253 254 254 254 254 254 253 254 254 254 254 254 254 255 255 256 257 258 259 259 260 261 262 262 263 264 264 265 266 266 267 267 267 268 268 268 269 269 269 269 269 269 269 268 269 269 269 269 269 269 270 270 270 270 270 271 271 271 272 272 272 273 273 273 274 274 275 275 275 276 277 277 277 277 277 277 277 277
250 250 250 250 250 251 252 252 253 253 254 255 256 256 256 255 254 254 255 255 255 255 255 256 256 256 257 258 258 259 260 261 262 262 263 264 264 265 266 267 267 268 268 268 268 269 269 269 269 269 269 268 268 268 268 268 268 267 267 268 268 268 268 269 269 269 270 270 271 271 272 272 273 273 274 274 275 275 276 277 277 277 277 276 276 276 276
254 254 253 253 252 252 252 252 253 254 254 255 255 256 257 257 257 257 257 256 256 256 256 256 256 256 257 258 258 259 260 260 261 261 262 263 263 264 265 266 267 267 268 268 268 269 269 269 269 269 269 269 268 268 268 268 268 267 267 267 267 267 267 267 267 268 268 269 269 269 270 270 271 272 273 273 274 275 275 276 276 277 277 277 277 276 276
256 256 255 255 254 254 253 253 253 254 254 254 255 256 257 258 259 259 259 259 259 258 258 257 257 257 257 258 258 259 260 260 261 261 262 262 262 263 264 265 265 266 267 267 268 268 268 268 268 268 268 268 268 268 268 268 268 268 268 268 268 267 267 267 267 267 267 267 268 268 268 269 270 270 271 272 272 273 274 274 275 275 276 277 278 277 276
258 257 256 256 256 255 255 254 254 254 254 255 256 256 257 258 258 259 259 260 260 260 260 260 260 259 259 258 258 259 260 260 261 262 262 262 263 263 263 264 264 264 265 265 266 266 266 267 267 267 268 268 268 268 269 269 269 269 269 269 269 269 269 268 268 268 268 268 268 268 268 269 269 269 270 270 271 272 272 273 274 274 275 275 276 276 276
262 260 259 258 257 256 255 255 255 256 256 257 258 258 258 258 259 259 259 260 260 261 261 262 262 262 262 261 260 259 260 260 261 262 262 263 264 264 264 265 265 265 265 265 265 266 266 266 267 267 268 268 268 269 269 269 269 270 270 270 270 270 270 270 269 269 269 269 269 269 269 269 269 269 270 270 271 271 272 273 273 274 274 274 275 275 276
269 267 265 263 261 259 257 257 258 259 260 260 260 261 261 261 261 260 260 261 261 261 261 261 262 262 263 263 262 261 260 260 260 261 262 263 263 264 265 265 266 266 267 267 267 267 267 267 268 268 268 268 268 269 269 269 269 270 270 270 270 270 270 270 270 270 270 269 269 269 269 269 269 269 270 271 271 272 272 273 273 274 274 274 274 275 275
272 272 272 271 269 267 265 263 263 263 262 261 262 263 264 264 263 262 262 262 262 262 262 262 262 262 262 262 262 262 261 261 260 260 261 261 263 263 264 265 266 267 267 267 267 268 268 269 269 269 269 269 269 269 270 270 270 270 271 271 271 271 271 271 271 271 270 270 270 269 269 269 270 270 271 271 272 272 272 273 273 273 274 274 274 275 275
271 272 274 275 275 274 273 270 268 266 264 263 263 263 263 264 264 263 263 262 262 261 262 262 262 262 261 261 261 261 261 261 261 260 261 261 262 263 264 264 265 266 266 266 267 268 269 269 269 269 269 270 270 270 271 271 271 271 271 271 271 271 271 271 271 271 271 270 270 270 269 269 270 270 271 271 272 272 272 273 273 274 274 275 276 276 277
274 273 274 276 277 277 276 274 272 269 267 265 264 263 262 262 263 263 262 262 261 261 261 261 261 261 261 261 261 261 261 261 261 261 261 261 262 263 264 265 265 265 266 266 267 268 269 269 269 269 270 270 271 271 271 271 271 271 271 271 271 271 271 271 271 271 270 270 270 270 270 270 270 271 271 272 272 273 273 274 275 275 276 277 278 278 279
281 279 277 277 277 278 278 277 275 272 269 266 265 264 262 261 261 261 261 261 260 260 260 260 260 260 260 260 260 260 261 261 261 261 262 262 263 264 264 265 265 265 266 267 268 268 268 268 269 269 270 270 270 271 271 271 271 271 271 271 271 271 271 271 271 271 270 270 270 270 270 271 271 272 272 273 273 274 275 276 277 277 278 279 280 281 281
288 285 283 281 280 279 278 278 276 274 272 269 266 264 263 261 260 259 259 260 260 260 260 260 260 260 259 259 259 259 260 261 261 262 262 263 263 264 264 265 265 265 266 267 267 267 267 268 269 269 269 270 270 271 271 271 271 271 271 271 271 271 271 271 271 271 271 271 271 271 272 272 273 273 274 274 275 275 276 277 278 279 280 281 282 283 284
292 291 289 287 284 281 280 278 277 275 273 270 267 264 263 262 260 259 259 259 260 260 260 260 260 259 259 259 258 259 259 260 261 262 263 263 264 264 264 265 265 266 267 267 267 267 268 268 269 270 270 270 271 271 272 272 272 272 272 272 271 271 271 271 271 271 272 272 272 272 273 273 274 274 275 275 276 277 277 278 279 280 281 283 284 284 285
294 293 292 291 289 286 282 279 277 275 273 270 266 263 262 261 261 260 260 260 260 260 260 260 259 259 258 258 258 258 259 260 261 261 262 263 263 264 264 265 266 267 268 268 268 268 269 269 270 271 271 272 272 272 273 273 273 273 273 272 272 272 271 271 271 272 272 273 273 273 274 274 275 275 276 277 277 278 279 279 280 281 283 284 285 286 286
299 296 295 293 291 288 285 281 278 276 274 271 267 263 261 261 261 261 261 261 260 258 258 258 258 258 258 257 257 257 258 259 260 261 262 263 263 264 265 266 268 268 268 268 269 270 271 272 272 273 274 274 274 275 275 275 274 274 274 273 273 272 272 272 272 272 273 273 273 274 274 275 276 276 277 278 279 279 280 281 281 282 283 285 286 286 286
304 301 298 296 293 290 287 284 281 278 275 272 269 266 263 261 262 262 262 262 260 258 257 257 258 258 258 257 256 257 257 258 259 260 261 263 264 265 267 268 269 269 269 270 271 272 273 273 274 275 275 276 276 276 276 276 275 275 274 274 273 273 272 272 272 272 273 273 274 274 275 276 277 277 278 278 279 280 280 281 282 283 284 285 286 286 286
310 306 302 299 296 293 288 285 282 279 275 273 271 269 266 263 261 261 262 263 261 259 257 257 256 257 257 257 257 257 257 258 259 260 261 263 264 266 267 268 269 269 269 271 272 272 272 273 274 275 275 275 276 276 276 276 276 275 274 274 273 273 272 272 272 272 272 273 273 274 275 276 276 277 277 278 278 279 280 281 282 283 284 285 286 286 286
313 309 305 302 298 295 291 287 283 279 276 273 272 270 269 266 263 261 261 262 262 260 258 257 256 255 255 256 257 258 258 259 259 260 261 262 264 265 266 266 267 268 269 270 270 270 271 272 273 274 274 275 275 275 275 275 274 274 274 273 272 272 272 272 271 271 272 272 272 273 274 275 275 276 276 276 276 277 279 280 282 283 285 285 286 285 285
314 310 306 302 299 295 292 288 284 280 276 273 272 271 270 269 267 265 263 262 261 260 259 259 258 256 255 254 255 256 257 259 260 260 261 262 263 263 264 265 266 267 268 268 268 269 270 271 272 273 274 274 274 274 274 274 273 273 272 272 272 271 271 271 271 271 271 271 272 273 273 273 274 275 275 275 275 276 278 279 281 283 284 286 286 286 285
315 311 306 302 298 294 290 287 284 281 278 275 273 272 271 269 267 266 265 264 262 261 259 259 259 258 257 256 255 255 256 257 259 260 261 261 261 262 263 264 265 266 267 267 268 269 269 270 271 273 274 274 274 274 274 273 273 272 271 271 271 271 270 270 270 270 270 271 271 272 273 273 273 274 274 274 275 276 277 278 280 282 283 284 285 286 286
316 311 306 301 298 294 290 287 285 283 280 278 276 274 272 270 267 266 265 265 264 262 261 260 259 259 259 259 258 257 256 256 257 258 259 260 261 261 262 263 265 265 266 266 267 268 268 269 271 272 273 274 274 274 273 273 273 272 271 270 269 269 269 269 269 269 269 270 271 272 273 274 274 274 274 274 274 274 275 277 278 280 281 282 283 285 285
316 311 306 301 297 295 292 289 286 284 282 281 279 277 274 272 270 268 266 265 264 263 262 261 261 261 260 260 260 260 259 258 258 258 259 260 261 262 262 263 264 265 265 266 266 267 268 269 270 271 272 273 273 273 273 273 273 273 272 271 270 269 268 268 269 269 269 270 271 272 273 273 274 274 274 274 274 274 274 275 277 278 280 280 281 282 283
316 312 307 302 299 296 292 289 287 285 283 281 280 279 277 275 272 269 267 266 265 264 263 261 261 262 261 261 261 261 262 261 261 260 260 261 262 262 262 262 263 264 265 266 266 267 267 268 269 270 271 272 272 273 273 273 273 273 272 272 272 271 270 269 269 270 270 271 271 271 272 272 273 274 274 275 275 275 275 275 276 278 279 280 281 281 281
317 313 309 304 300 296 292 289 286 284 282 281 280 280 279 277 275 273 270 268 267 266 264 262 261 261 261 261 261 261 261 262 262 262 263 263 263 264 264 264 264 264 265 266 266 267 267 267 268 269 269 270 271 272 273 274 274 274 273 273 273 272 272 271 271 271 271 271 272 272 272 272 273 273 274 275 275 276 276 276 276 277 279 281 281 281 280
319 315 312 308 303 299 295 291 288 285 282 281 281 281 280 278 276 275 273 271 270 269 267 266 264 262 261 261 261 261 261 261 261 262 263 264 264 265 265 265 265 265 265 266 266 266 267 267 267 268 268 269 270 271 272 273 274 275 275 275 274 274 273 273 273 272 272 273 273 274 274 274 274 274 275 276 277 277 277 276 276 276 277 278 279 280 280
320 317 314 310 305 301 297 294 291 287 284 281 280 280 280 279 277 276 275 273 272 271 271 270 268 266 265 264 264 264 263 263 262 263 263 264 264 265 265 265 265 265 265 266 266 266 267 267 267 267 268 268 269 270 271 272 273 274 275 276 276 276 275 275 274 274 273 273 273 273 274 275 276 277 277 278 278 278 278 278 277 277 276 277 278 279 279
321 318 315 312 308 304 300 297 293 290 287 283 280 278 277 276 276 276 276 276 275 274 273 272 271 270 268 267 266 266 266 265 265 264 264 264 264 265 265 265 265 265 265 265 265 266 266 266 267 268 268 268 269 269 270 271 272 273 274 275 276 277 277 277 276 276 276 275 274 274 274 274 275 277 278 279 279 280 280 279 279 278 277 276 277 277 278
Height
10443 10446 10449 10451 10453 10455 10458 10461 10463 10466 10468 10470 10473 10476 10479 10483 10485 10488 10492 10495 10499 10503 10507 10511 10516 10520 10522 10521 10522 10525 10527 10526 10527 10529 10530 10532 10534 10536 10538 10540 10542 10545 10547 10549 10552 10554 10556 10557 10558 10559 10560 10561 10561 10561 10562 10562 10562 10563 10563 10562 10559 10557 10556 10557 10556 10556 10557 10556 10555 10555 10555 10554 10553 10553 10552 10553 10554 10555 10556 10556 10556 10556 10557 10557 10557 10557 10557
10439 10442 10445 10447 10449 10452 10454 10456 10459 10461 10463 10465 10468 10471 10475 10478 10481 10483 10486 10489 10493 10497 10500 10504 10508 10512 10515 10516 10517 10519 10520 10521 10522 10523 10524 10526 10528 10529 10531 10533 10535 10538 10540 10543 10546 10548 10550 10552 10553 10554 10555 10556 10557 10558 10559 10558 10557 10558 10559 10559 10556 10551 10548 10548 10549 10551 10552 10552 10551 10550 10548 10546 10546 10547 10546 10546 10548 10548 10550 10550 10551 10551 10551 10551 10551 10551 10550
10435 10438 10440 10443 10446 10449 10451 10452 10454 10456 10458 10460 10463 10466 10470 10473 10476 10479 10482 10485 10488 10492 10495 10498 10501 10505 10509 10510 10511 10513 10514 10515 10515 10516 10517 10519 10520 10522 10524 10526 10529 10532 10535 10538 10541 10543 10545 10547 10548 10549 10549 10551 10552 10553 10553 10553 10552 10551 10551 10550 10548 10545 10542 10542 10544 10546 10547 10547 10547 10548 10546 10540 10537 10539 10540 10540 10540 10541 10541 10543 10543 10544 10545 10545 10545 10545 10544
10430 10433 10435 10438 10442 10445 10446 10447 10449 10451 10452 10454 10457 10461 10465 10468 10471 10474 10477 10480 10483 10486 10488 10492 10496 10501 10504 10504 10505 10507 10507 10507 10507 10507 10509 10511 10513 10515 10518 10521 10524 10527 10530 10533 10535 10537 10539 10540 10542 10542 10542 10544 10545 10546 10545 10544 10545 10544 10542 10540 10539 10538 10538 10538 10539 10540 10541 10542 10544 10546 10546 10539 10532 10531 10532 10532 10533 10533 10533 10534 10535 10537 10537 10538 10538 10538 10537
10424 10428 10430 10433 10437 10439 10441 10443 10444 10446 10447 10450 10453 10456 10459 10463 10466 10469 10471 10474 10477 10480 10482 10487 10491 10495 10497 10497 10497 10499 10498 10498 10499 10500 10502 10504 10507 10510 10514 10517 10520 10521 10523 10525 10527 10528 10530 10532 10534 10534 10535 10535 10536 10537 10536 10536 10537 10538 10535 10533 10533 10533 10534 10534 10535 10536 10536 10537 10538 10540 10542 10538 10531 10527 10526 10525 10525 10526 10526 10527 10527 10528 10528 10529 10530 10529 10529
10417 10421 10423 10426 10429 10432 10435 10438 10439 10440 10442 10445 10448 10451 10454 10457 10461 10464 10465 10468 10471 10475 10477 10481 10484 10487 10488 10489 10490 10490 10489 10490 10492 10493 10495 10497 10501 10505 10509 10512 10513 10513 10514 10516 10517 10519 10522 10524 10525 10525 10526 10527 10527 10528 10528 10528 10529 10530 10529 10528 10527 10527 10528 10529 10530 10530 10530 10531 10532 10532 10533 10532 10528 10524 10521 10519 10518 10518 10519 10520 10520 10520 10520 10520 10520 10520 10520
10411 10413 10415 10417 10420 10423 10427 10429 10431 10434 10436 10438 10441 10445 10448 10451 10455 10458 10460 10461 10465 10469 10471 10474 10476 10479 10480 10481 10482 10482 10482 10484 10485 10486 10488 10490 10494 10498 10502 10505 10506 10505 10507 10508 10509 10511 10514 10515 10516 10516 10518 10520 10522 10522 10522 10521 10521 10521 10521 10521 10520 10520 10521 10521 10521 10522 10522 10523 10524 10524 10524 10523 10521 10518 10516 10514 10512 10511 10511 10511 10511 10511 10511 10511 10511 10510 10510
10405 10407 10408 10410 10412 10415 10420 10422 10424 10428 10430 10433 10436 10439 10442 10445 10448 10451 10453 10455 10458 10462 10464 10467 10470 10471 10472 10473 10475 10476 10477 10478 10478 10478 10480 10483 10487 10491 10494 10497 10498 10498 10500 10501 10502 10504 10506 10506 10508 10509 10510 10513 10515 10516 10516 10514 10513 10512 10512 10512 10513 10513 10513 10513 10513 10513 10513 10513 10514 10515 10515 10514 10513 10511 10509 10507 10505 10503 10502 10502 10502 10502 10502 10502 10502 10502 10502
10399 10401 10402 10403 10406 10410 10414 10417 10420 10422 10425 10428 10431 10433 10436 10439 10442 10444 10447 10449 10452 10455 10457 10460 10462 10464 10465 10466 10468 10469 10469 10469 10469 10470 10473 10476 10479 10482 10486 10489 10491 10492 10493 10494 10496 10497 10497 10498 10500 10501 10502 10505 10508 10508 10508 10507 10505 10504 10504 10503 10505 10506 10505 10504 10504 10503 10504 10505 10505 10506 10506 10505 10504 10502 10501 10499 10497 10496 10494 10493 10493 10493 10493 10493 10493 10493 10493
10393 10395 10396 10398 10401 10404 10408 10413 10416 10418 10421 10424 10427 10429 10432 10434 10436 10439 10441 10443 10446 10449 10450 10453 10455 10457 10458 10460 10461 10461 10460 10460 10461 10464 10467 10468 10471 10474 10477 10480 10483 10485 10486 10487 10489 10490 10490 10490 10491 10491 10493 10496 10498 10500 10501 10499 10496 10495 10494 10493 10494 10496 10497 10496 10494 10494 10495 10495 10496 10496 10496 10495 10494 10493 10491 10490 10489 10487 10486 10485 10484 10484 10484 10484 10485 10485 10484
10388 10390 10391 10393 10396 10398 10402 10407 10411 10414 10417 10420 10423 10425 10427 10429 10431 10433 10434 10437 10440 10443 10444 10446 10448 10449 10450 10452 10451 10451 10452 10454 10456 10458 10459 10461 10464 10466 10468 10471 10474 10477 10478 10480 10481 10482 10482 10482 10482 10483 10484 10485 10487 10490 10491 10490 10488 10486 10485 10485 10484 10484 10485 10486 10485 10484 10484 10485 10485 10486 10486 10486 10485 10484 10483 10481 10480 10479 10478 10476 10475 10474 10474 10475 10475 10475 10475
10382 10383 10385 10387 10390 10392 10395 10399 10404 10407 10410 10412 10416 10418 10421 10423 10425 10426 10427 10429 10432 10434 10437 10438 10439 10440 10441 10442 10441 10442 10445 10448 10451 10452 10453 10455 10457 10459 10460 10462 10464 10466 10468 10470 10471 10472 10472 10473 10473 10474 10475 10475 10477 10478 10479 10480 10479 10477 10476 10476 10475 10474 10474 10475 10475 10474 10474 10474 10474 10475 10476 10476 10476 10475 10474 10473 10472 10471 10470 10468 10467 10466 10466 10466 10465 10464 10464
10376 10377 10378 10380 10383 10386 10388 10391 10395 10400 10402 10405 10408 10411 10414 10417 10419 10420 10421 10422 10424 10427 10429 10430 10430 10430 10432 10434 10434 10435 10437 10440 10443 10446 10448 10449 10451 10452 10453 10454 10455 10456 10458 10459 10460 10461 10462 10463 10463 10463 10465 10465 10466 10466 10468 10469 10469 10467 10466 10466 10465 10464 10464 10464 10464 10464 10464 10465 10465 10466 10466 10466 10466 10466 10465 10464 10463 10462 10461 10461 10460 10459 10458 10457 10456 10455 10454
10369 10371 10372 10374 10377 10379 10382 10384 10387 10391 10395 10398 10400 10403 10406 10408 10411 10412 10414 10416 10418 10420 10422 10423 10423 10423 10424 10425 10426 10427 10429 10432 10436 10439 10441 10442 10443 10444 10445 10446 10446 10447 10448 10448 10449 10450 10451 10452 10452 10453 10454 10455 10455 10456 10457 10458 10458 10457 10457 10456 10454 10453 10453 10452 10453 10454 10455 10456 10457 10457 10456 10456 10455 10455 10454 10454 10453 10453 10452 10452 10452 10451 10450 10449 10448 10447 10445
10362 10364 10366 10368 10370 10372 10375 10378 10380 10383 10386 10389 10392 10394 10397 10399 10401 10403 10405 10406 10408 10411 10413 10414 10415 10416 10417 10418 10418 10418 10420 10423 10427 10431 10432 10432 10434 10435 10435 10436 10437 10438 10438 10438 10438 10439 10440 10441 10442 10443 10444 10444 10445 10446 10447 10447 10447 10446 10445 10444 10444 10443 10443 10442 10442 10443 10443 10444 10445 10445 10445 10444 10444 10443 10443 10442 10442 10442 10442 10442 10442 10442 10441 10440 10440 10439 10438
10354 10356 10358 10360 10362 10365 10367 10370 10372 10375 10377 10380 10382 10385 10387 10389 10392 10394 10395 10396 10398 10400 10402 10404 10406 10408 10409 10410 10411 10412 10413 10415 10417 10419 10420 10421 10423 10424 10425 10426 10426 10427 10427 10427 10428 10429 10429 10430 10431 10432 10434 10435 10436 10436 10436 10435 10435 10434 10434 10434 10434 10434 10434 10433 10433 10432 10432 10432 10432 10432 10431 10431 10431 10431 10431 10431 10430 10430 10430 10430 10431 10431 10430 10430 10429 10429 10429
10346 10347 10350 10352 10355 10357 10360 10362 10364 10366 10368 10370 10373 10375 10377 10379 10381 10383 10385 10386 10387 10389 10391 10393 10396 10398 10399 10400 10402 10403 10404 10405 10406 10408 10409 10410 10412 10414 10416 10416 10417 10418 10418 10418 10419 10420 10420 10420 10421 10422 10424 10425 10425 10424 10424 10425 10425 10425 10425 10424 10424 10424 10424 10423 10423 10423 10422 10421 10420 10420 10419 10419 10419 10419 10418 10418 10417 10417 10417 10417 10417 10417 10417 10416 10416 10416 10417
10338 10340 10342 10345 10348 10350 10352 10354 10355 10357 10359 10361 10363 10366 10367 10369 10370 10372 10374 10374 10375 10377 10380 10382 10385 10388 10389 10391 10392 10394 10395 10395 10395 10397 10398 10400 10402 10404 10406 10407 10408 10409 10409 10409 10410 10412 10412 10412 10412 10413 10414 10414 10414 10414 10414 10415 10415 10415 10414 10414 10414 10414 10414 10413 10413 10412 10411 10410 10409 10408 10408 10407 10406 10406 10405 10405 10404 10403 10402 10402 10402 10402 10402 10402 10402 10402 10402
10333 10334 10335 10338 10340 10341 10343 10345 10347 10348 10350 10353 10354 10356 10358 10359 10360 10361 10362 10362 10364 10366 10369 10371 10374 10377 10380 10382 10383 10384 10385 10385 10385 10386 10388 10389 10390 10392 10395 10397 10398 10399 10398 10399 10401 10402 10402 10403 10403 10404 10404 10404 10404 10404 10405 10405 10405 10404 10404 10404 10404 10404 10403 10402 10401 10401 10400 10399 10397 10396 10395 10394 10394 10393 10392 10392 10392 10390 10389 10389 10388 10388 10387 10387 10387 10387 10388
10327 10328 10329 10331 10332 10333 10335 10337 10339 10340 10342 10343 10345 10347 10349 10350 10350 10351 10352 10353 10354 10356 10358 10360 10363 10366 10369 10371 10374 10375 10376 10377 10377 10377 10378 10378 10378 10379 10381 10385 10387 10388 10388 10388 10390 10391 10392 10393 10393 10394 10395 10395 10394 10394 10394 10394 10393 10393 10394 10394 10393 10392 10391 10390 10390 10389 10388 10387 10385 10384 10382 10381 10380 10380 10379 10379 10379 10378 10376 10375 10374 10374 10373 10373 10372 10373 10374
10319 10321 10321 10322 10323 10324 10327 10329 10331 10332 10333 10334 10335 10338 10339 10341 10341 10342 10342 10343 10345 10346 10348 10349 10351 10354 10357 10360 10362 10364 10366 10367 10367 10366 10365 10365 10366 10367 10369 10373 10376 10378 10377 10378 10379 10379 10380 10381 10381 10381 10383 10384 10383 10383 10382 10382 10382 10382 10382 10381 10380 10379 10378 10377 10376 10375 10374 10373 10372 10370 10369 10368 10366 10366 10365 10365 10364 10363 10362 10360 10360 10359 10358 10357 10356 10356 10357
10311 10311 10312 10312 10313 10314 10317 10319 10321 10323 10324 10325 10326 10328 10329 10330 10331 10332 10332 10333 10335 10337 10338 10339 10340 10342 10345 10347 10349 10351 10352 10352 10352 10352 10352 10353 10356 10357 10358 10360 10363 10366 10367 10367 10368 10368 10368 10368 10368 10368 10369 10370 10370 10370 10369 10369 10369 10369 10368 10368 10367 10366 10365 10364 10362 10361 10360 10359 10357 10356 10355 10353 10352 10351 10350 10349 10349 10348 10346 10344 10343 10343 10344 10343 10341 10340 10340
10302 10302 10302 10303 10303 10305 10307 10308 10310 10312 10313 10314 10315 10316 10317 10319 10320 10321 10322 10323 10325 10327 10327 10327 10328 10331 10334 10336 10337 10337 10337 10337 10337 10339 10341 10343 10345 10346 10345 10346 10349 10351 10353 10355 10356 10356 10357 10357 10357 10357 10357 10357 10356 10356 10356 10356 10356 10355 10355 10355 10354 10353 10352 10351 10349 10348 10347 10345 10344 10343 10341 10340 10338 10337 10335 10333 10332 10331 10331 10329 10327 10326 10326 10327 10326 10325 10325
10293 10293 10294 10294 10295 10296 10297 10298 10299 10300 10301 10302 10303 10304 10306 10308 10309 10310 10311 10313 10315 10317 10317 10316 10317 10319 10321 10324 10325 10324 10323 10323 10325 10328 10329 10331 10332 10331 10331 10332 10336 10338 10339 10340 10342 10343 10344 10345 10346 10345 10345 10344 10343 10342 10342 10342 10342 10342 10341 10341 10340 10339 10338 10337 10336 10335 10334 10333 10332 10330 10329 10327 10325 10324 10323 10320 10317 10315 10315 10315 10315 10313 10311 10310 10310 10310 10310
10284 10284 10284 10285 10286 10287 10288 10287 10287 10288 10289 10290 10292 10294 10295 10296 10297 10298 10300 10302 10304 10306 10306 10306 10306 10307 10308 10310 10310 10310 10310 10312 10315 10316 10317 10318 10318 10318 10318 10321 10324 10325 10326 10326 10327 10328 10329 10331 10331 10332 10331 10331 10330 10329 10328 10328 10328 10328 10328 10327 10326 10325 10324 10323 10322 10321 10320 10319 10318 10317 10315 10314 10312 10311 10310 10309 10306 10302 10299 10299 10300 10300 10298 10297 10296 10296 10295
10276 10276 10276 10277 10277 10278 10278 10278 10278 10277 10278 10278 10279 10281 10282 10283 10284 10285 10287 10289 10291 10293 10294 10295 10295 10296 10297 10297 10296 10296 10298 10301 10304 10305 10306 10306 10305 10305 10307 10309 10310 10312 10313 10313 10313 10314 10314 10315 10316 10316 10317 10317 10316 10315 10314 10315 10315 10315 10314 10313 10313 10312 10311 10309 10308 10307 10307 10306 10305 10303 10302 10300 10299 10297 10296 10295 10294 10292 10288 10284 10284 10284 10285 10284 10284 10283 10282
10268 10268 10268 10268 10269 10269 10269 10269 10268 10268 10268 10267 10266 10265 10266 10268 10270 10272 10274 10276 10278 10280 10282 10283 10283 10284 10284 10284 10285 10286 10288 10290 10291 10293 10293 10294 10293 10294 10295 10296 10298 10299 10299 10299 10300 10300 10300 10301 10301 10301 10301 10300 10300 10300 10300 10300 10300 10301 10301 10300 10299 10298 10298 10297 10296 10295 10294 10293 10292 10290 10288 10287 10286 10284 10283 10281 10280 10279 10277 10273 10270 10269 10268 10269 10271 10272 10271
10261 10261 10260 10260 10260 10260 10260 10260 10259 10258 10258 10257 10255 10253 10253 10254 10257 10259 10262 10264 10266 10267 10269 10269 10270 10271 10272 10273 10274 10276 10277 10278 10278 10279 10281 10282 10283 10283 10284 10285 10285 10286 10286 10286 10287 10287 10287 10287 10287 10286 10286 10286 10285 10286 10286 10285 10286 10286 10286 10285 10285 10285 10285 10284 10283 10282 10281 10281 10279 10277 10276 10274 10273 10272 10270 10268 10267 10266 10264 10263 10260 10257 10254 10254 10256 10258 10259
10254 10253 10253 10252 10252 10252 10252 10251 10250 10249 10247 10246 10245 10244 10244 10245 10247 10248 10250 10252 10253 10253 10254 10255 10257 10259 10261 10263 10263 10264 10265 10265 10266 10267 10268 10270 10271 10272 10273 10274 10274 10274 10274 10274 10274 10274 10273 10273 10273 10273 10273 10272 10272 10272 10272 10272 10272 10273 10272 10272 10271 10272 10272 10271 10270 10270 10269 10268 10267 10265 10264 10263 10261 10260 10258 10257 10255 10254 10252 10251 10249 10247 10245 10243 10242 10243 10245
10247 10246 10245 10244 10243 10243 10243 10242 10241 10239 10237 10236 10236 10236 10236 10237 10238 10239 10239 10240 10240 10240 10241 10242 10245 10247 10250 10252 10253 10253 10253 10253 10253 10254 10255 10257 10259 10261 10262 10263 10262 10263 10263 10263 10262 10261 10261 10261 10261 10260 10260 10260 10260 10260 10260 10259 10260 10260 10259 10259 10259 10259 10259 10258 10257 10257 10256 10256 10254 10253 10252 10251 10249 10248 10246 10245 10244 10242 10241 10240 10238 10237 10236 10234 10232 10231 10231
10239 10238 10237 10236 10236 10235 10234 10232 10231 10230 10229 10229 10229 10228 10228 10229 10230 10231 10231 10231 10231 10231 10231 10232 10234 10236 10238 10240 10242 10243 10243 10243 10243 10243 10244 10245 10247 10248 10250 10250 10250 10251 10251 10251 10250 10250 10250 10250 10250 10250 10249 10249 10249 10249 10248 10248 10248 10248 10247 10247 10247 10247 10246 10246 10245 10244 10244 10243 10242 10241 10240 10239 10237 10236 10235 10234 10233 10232 10230 10229 10228 10227 10226 10224 10223 10222 10220
10230 10229 10228 10228 10228 10226 10225 10224 10223 10223 10223 10223 10221 10219 10220 10221 10222 10223 10223 10223 10223 10223 10223 10224 10226 10227 10227 10229 10230 10232 10233 10234 10234 10235 10235 10235 10236 10238 10239 10239 10239 10239 10240 10239 10238 10238 10239 10239 10240 10239 10238 10238 10238 10238 10238 10238 10237 10237 10237 10237 10236 10235 10234 10234 10234 10233 10232 10232 10231 10230 10229 10227 10226 10225 10224 10224 10223 10221 10220 10219 10218 10217 10215 10214 10213 10212 10211
10223 10220 10219 10218 10218 10217 10218 10218 10217 10217 10217 10216 10214 10212 10212 10214 10214 10215 10215 10216 10215 10215 10215 10216 10217 10219 10219 10220 10220 10222 10223 10224 10225 10226 10227 10227 10228 10229 10230 10230 10230 10230 10229 10228 10228 10229 10230 10230 10229 10228 10228 10228 10228 10227 10227 10227 10227 10227 10226 10226 10226 10225 10224 10223 10222 10222 10221 10220 10220 10219 10218 10217 10216 10215 10215 10214 10213 10211 10210 10209 10208 10206 10205 10204 10204 10203 10203
10217 10214 10211 10209 10209 10208 10209 10210 10210 10210 10210 10209 10207 10206 10206 10206 10206 10206 10208 10208 10208 10207 10207 10208 10209 10210 10211 10212 10212 10213 10214 10215 10217 10218 10219 10220 10221 10221 10221 10222 10222 10221 10220 10219 10220 10221 10221 10221 10220 10218 10218 10218 10218 10217 10217 10217 10217 10217 10216 10216 10215 10215 10214 10213 10212 10211 10211 10210 10209 10208 10207 10207 10207 10206 10206 10205 10203 10202 10200 10199 10198 10197 10196 10195 10194 10194 10194
10211 10208 10205 10203 10201 10201 10201 10201 10201 10201 10202 10201 10200 10198 10198 10198 10198 10199 10200 10200 10200 10200 10200 10200 10201 10201 10202 10204 10205 10205 10206 10207 10208 10210 10211 10212 10213 10213 10213 10213 10213 10212 10211 10211 10212 10213 10213 10211 10210 10209 10209 10209 10209 10208 10208 10208 10208 10207 10207 10207 10206 10205 10205 10204 10203 10202 10201 10201 10200 10199 10198 10198 10198 10198 10197 10196 10194 10192 10191 10190 10189 10188 10187 10186 10185 10185 10185
10203 10201 10199 10197 10195 10193 10193 10192 10192 10192 10193 10193 10192 10191 10191 10191 10191 10192 10192 10192 10192 10193 10193 10193 10193 10193 10194 10195 10197 10197 10198 10199 10201 10202 10203 10204 10205 10205 10205 10205 10204 10203 10203 10204 10205 10205 10204 10202 10202 10201 10201 10201 10201 10199 10199 10200 10200 10198 10198 10198 10197 10196 10196 10195 10194 10194 10193 10192 10191 10190 10190 10189 10189 10189 10188 10187 10185 10184 10183 10182 10180 10179 10178 10177 10176 10176 10176
10194 10193 10191 10190 10189 10187 10186 10185 10184 10184 10185 10185 10185 10184 10183 10183 10184 10184 10184 10184 10185 10186 10187 10186 10186 10186 10187 10188 10189 10190 10191 10192 10193 10194 10195 10196 10197 10197 10197 10196 10195 10195 10196 10196 10197 10197 10195 10195 10195 10194 10193 10193 10193 10192 10191 10192 10191 10190 10189 10189 10189 10188 10187 10187 10186 10185 10184 10184 10183 10182 10182 10182 10182 10181 10180 10178 10177 10176 10175 10174 10172 10171 10170 10169 10169 10168 10168
10188 10185 10184 10183 10182 10181 10180 10179 10178 10177 10177 10178 10178 10177 10176 10176 10176 10177 10177 10177 10178 10180 10180 10180 10179 10180 10180 10181 10182 10183 10183 10185 10186 10187 10188 10189 10189 10189 10188 10188 10188 10188 10189 10189 10189 10189 10188 10188 10187 10186 10185 10185 10185 10184 10183 10184 10183 10182 10181 10181 10181 10181 10180 10179 10178 10177 10177 10176 10175 10175 10174 10174 10174 10173 10172 10170 10169 10168 10167 10166 10165 10164 10163 10162 10161 10161 10161
10182 10180 10178 10176 10175 10174 10173 10172 10171 10171 10170 10171 10171 10171 10170 10169 10170 10170 10170 10171 10173 10174 10174 10173 10173 10173 10174 10175 10175 10176 10176 10178 10179 10180 10181 10181 10181 10181 10181 10181 10181 10182 10182 10182 10182 10181 10181 10181 10180 10179 10178 10178 10178 10177 10176 10176 10176 10175 10174 10174 10173 10173 10173 10172 10171 10170 10169 10169 10168 10167 10167 10166 10166 10166 10164 10163 10161 10161 10160 10160 10159 10158 10157 10156 10155 10155 10154
10177 10175 10172 10171 10170 10168 10167 10166 10165 10165 10164 10164 10165 10165 10164 10164 10164 10163 10163 10164 10167 10168 10167 10167 10167 10167 10168 10169 10169 10169 10170 10171 10172 10173 10174 10174 10174 10174 10174 10174 10175 10175 10174 10174 10174 10175 10174 10174 10173 10172 10171 10170 10170 10169 10169 10168 10168 10167 10167 10167 10167 10166 10165 10165 10164 10163 10162 10162 10161 10161 10160 10159 10159 10159 10158 10156 10154 10154 10153 10153 10153 10152 10151 10150 10149 10148 10148
10172 10170 10167 10166 10164 10163 10162 10161 10160 10160 10159 10159 10159 10159 10159 10159 10158 10158 10157 10158 10160 10162 10161 10161 10162 10162 10162 10163 10163 10163 10164 10164 10165 10166 10167 10167 10167 10167 10168 10168 10168 10167 10167 10167 10168 10168 10167 10166 10165 10165 10164 10163 10163 10162 10162 10161 10161 10160 10160 10159 10160 10159 10159 10158 10157 10156 10156 10155 10155 10154 10154 10153 10153 10152 10152 10150 10149 10148 10147 10147 10147 10146 10145 10145 10143 10142 10142
10167 10164 10162 10160 10159 10158 10157 10156 10155 10155 10154 10154 10153 10154 10154 10154 10154 10153 10152 10153 10154 10156 10156 10156 10156 10157 10157 10157 10157 10158 10158 10159 10159 10160 10160 10160 10161 10161 10162 10162 10161 10160 10160 10162 10162 10161 10160 10160 10160 10159 10158 10157 10156 10156 10155 10155 10154 10153 10153 10153 10153 10152 10152 10152 10151 10150 10150 10149 10149 10148 10148 10147 10147 10147 10146 10145 10143 10142 10142 10141 10141 10141 10140 10139 10138 10137 10136
10162 10159 10157 10155 10154 10153 10152 10151 10151 10150 10150 10149 10148 10149 10149 10149 10149 10149 10148 10148 10149 10150 10150 10150 10151 10152 10152 10152 10152 10152 10152 10153 10153 10154 10155 10155 10155 10156 10156 10155 10154 10154 10155 10156 10156 10155 10154 10154 10154 10153 10152 10151 10150 10150 10149 10149 10148 10147 10147 10146 10146 10146 10146 10146 10145 10145 10144 10143 10143 10143 10143 10142 10141 10141 10140 10140 10139 10137 10136 10136 10136 10135 10134 10134 10133 10132 10131
10158 10155 10153 10151 10150 10148 10147 10146 10146 10146 10145 10144 10144 10144 10144 10145 10145 10144 10144 10144 10144 10144 10144 10145 10145 10146 10146 10147 10147 10147 10146 10147 10147 10148 10149 10149 10150 10150 10150 10149 10148 10148 10149 10150 10149 10149 10149 10149 10148 10147 10146 10146 10145 10144 10144 10143 10143 10142 10141 10140 10140 10140 10140 10140 10139 10139 10138 10138 10137 10137 10137 10136 10136 10135 10134 10134 10133 10132 10131 10131 10130 10130 10129 10128 10128 10127 10127
10154 10151 10149 10147 10146 10145 10144 10143 10142 10141 10141 10140 10140 10140 10140 10140 10140 10140 10139 10139 10140 10140 10140 10140 10140 10140 10140 10141 10141 10142 10142 10141 10142 10142 10142 10143 10144 10144 10144 10143 10142 10143 10143 10143 10143 10143 10143 10143 10142 10142 10141 10140 10139 10138 10138 10137 10137 10137 10136 10135 10135 10134 10134 10134 10134 10133 10133 10132 10132 10131 10131 10130 10130 10130 10129 10128 10128 10127 10126 10125 10125 10124 10124 10123 10123 10122 10122
10151 10148 10145 10143 10142 10141 10140 10139 10139 10138 10137 10136 10136 10136 10136 10136 10135 10135 10135 10135 10135 10135 10136 10135 10135 10135 10135 10135 10135 10136 10136 10137 10137 10137 10136 10136 10137 10138 10138 10138 10137 10137 10137 10137 10137 10137 10137 10137 10137 10137 10136 10135 10134 10133 10132 10131 10131 10131 10131 10130 10130 10129 10129 10128 10128 10128 10128 10127 10127 10126 10125 10125 10124 10124 10123 10123 10123 10122 10121 10120 10120 10119 10119 10118 10118 10117 10117
10147 10145 10142 10140 10139 10138 10137 10136 10135 10135 10134 10132 10132 10132 10131 10132 10131 10131 10131 10130 10130 10130 10131 10131 10130 10130 10130 10130 10130 10130 10131 10131 10132 10132 10131 10131 10131 10132 10132 10132 10132 10132 10131 10131 10131 10131 10131 10131 10131 10131 10131 10130 10129 10127 10126 10126 10126 10125 10125 10125 10124 10124 10124 10123 10123 10123 10123 10122 10122 10121 10121 10120 10119 10119 10118 10118 10117 10117 10117 10116 10115 10114 10114 10114 10113 10113 10112
10143 10141 10139 10137 10136 10135 10134 10133 10132 10131 10130 10129 10128 10127 10127 10127 10127 10127 10126 10126 10125 10125 10126 10126 10126 10125 10125 10125 10125 10125 10125 10126 10126 10126 10126 10126 10126 10126 10126 10127 10126 10126 10126 10126 10125 10125 10125 10126 10126 10126 10125 10125 10124 10123 10121 10121 10120 10120 10120 10119 10119 10118 10118 10118 10118 10117 10117 10117 10117 10117 10116 10115 10114 10114 10113 10113 10113 10112 10112 10112 10111 10110 10110 10109 10109 10109 10108
10138 10137 10135 10134 10133 10132 10131 10130 10128 10127 10126 10125 10123 10123 10123 10122 10122 10122 10122 10121 10121 10121 10121 10121 10120 10120 10119 10119 10119 10119 10120 10120 10120 10120 10120 10120 10120 10120 10120 10121 10121 10121 10120 10120 10120 10120 10120 10120 10120 10120 10120 10120 10119 10118 10117 10116 10115 10115 10114 10114 10114 10113 10113 10112 10112 10112 10112 10112 10112 10111 10111 10110 10110 10109 10109 10108 10108 10108 10107 10107 10107 10106 10106 10105 10105 10105 10104
10134 10133 10131 10130 10129 10128 10127 10126 10125 10124 10123 10121 10120 10119 10118 10118 10118 10117 10117 10117 10116 10116 10116 10115 10115 10115 10114 10114 10113 10113 10114 10114 10114 10114 10114 10114 10114 10114 10114 10115 10115 10115 10115 10115 10114 10114 10114 10114 10114 10115 10115 10114 10114 10113 10113 10112 10111 10110 10109 10109 10109 10108 10108 10107 10107 10107 10107 10107 10107 10106 10106 10105 10105 10105 10104 10104 10103 10103 10103 10103 10102 10102 10102 10101 10101 10100 10100
10131 10129 10128 10127 10125 10124 10123 10122 10121 10120 10119 10118 10117 10116 10114 10113 10112 10112 10112 10112 10112 10111 10111 10110 10110 10110 10109 10109 10108 10108 10108 10108 10109 10108 10108 10108 10108 10108 10108 10108 10109 10109 10109 10109 10108 10108 10108 10109 10109 10109 10109 10109 10109 10109 10108 10108 10107 10106 10104 10104 10103 10103 10103 10102 10102 10102 10102 10102 10102 10101 10101 10100 10100 10100 10099 10099 10099 10098 10098 10098 10097 10097 10097 10097 10096 10096 10095
10128 10126 10124 10123 10121 10120 10119 10118 10116 10115 10114 10114 10113 10112 10111 10109 10107 10107 10107 10107 10107 10106 10106 10105 10104 10104 10104 10104 10103 10103 10102 10103 10103 10103 10102 10102 10102 10102 10102 10102 10102 10102 10102 10102 10102 10102 10103 10103 10103 10103 10103 10104 10104 10104 10103 10103 10102 10101 10100 10100 10099 10098 10097 10097 10097 10096 10096 10097 10097 10096 10096 10096 10096 10095 10095 10094 10094 10094 10093 10093 10093 10093 10092 10092 10092 10092 10091